GAOFEN-13 01

Last updated on Sat Dec 13 2025 00:02:50 GMT+0000 (Coordinated Universal Time)

1 46610U 20071A 25346.29985263 -.00000353 00000+0 00000+0 0 9991 2 46610 0.0431 77.1847 0042398 124.5477 105.6431 1.00267560 19048
UTC large
Height (km)
Speed (km/s)
/
Latitude / Longitude
Inclination (degrees)
Orbital Period (minutes)
Azimuth
Elevation
Range (km)
Doppler Factor

Next 0 passes for location: London (51.5072 / 0.1276)

Sorry there are no passes over London.